METEOR 2-8 DEB

Satellite information

Favourite Embed

Satellite Type and Status

DEBRISIN ORBIT

Key statistics

Satellite METEOR 2-8 DEB at a glance.

Uptime

15923

Days in orbit

Revolutions

≈ 14.5

Per day

Orbit

LEO

Low Earth Orbit

Inclination

82.5

Latest

Satellite identification and parameters

Extended collection of information and parameters for METEOR 2-8 DEB.

Object identification

Identified? True

Debris? True

Object name: METEOR 2-8 DEB

International designator: 1982-025AA

Object number (NORAD): 36340

Object ID (CCSDS): 36340

Country: COMMONWEALTH OF INDEPENDENT STATES (CIS)

Current information (Y/N): Y

RCS size: SMALL

Orbital parameters

Period: 99.354 minutes

Inclination: 82.515 deg

SMA: 7105.847 km

Apoapsis: 741.9 km

Periapsis: 713.523 km

RAAN: 271.1314 deg

Eccentricy: 0.0019967

Argument of periapsis: 32.8942 deg

Mean anomaly: 327.3492 deg

Mean motion: 14.49369174 rev/day

Mean motion (dot): 0.00012827 rev/day2

B* drag term: 0.0033408311 1/REarth

Two-line elements (TLE)

Creation date: Oct. 27, 2025, 10:32 a.m.

Reference frame: TEME

Reference center: EARTH

Epoch: Oct. 27, 2025, 4:21 a.m. UTC

TLE line 0: 0 METEOR 2-8 DEB

TLE line 1: 1 36340U 82025AA 25300.18156448 .00012827 00000-0 33408-2 0 9990

TLE line 2: 2 36340 82.5150 271.1314 0019967 32.8942 327.3492 14.49369174629799

Live tracking on map

Real-time ground track for satellite METEOR 2-8 DEB.

In-orbit conjunctions

A list of the most updated potential collisions computed for object METEOR 2-8 DEB.

Target Orbit TCA Probability of collision Miss distance Type
SL-16 DEB LEO 2025-09-10 03:21:12 0.0004785505 227.0 (m) DEBRIS
COSMOS 1818 COOLANT LEO 2024-11-11 14:50:32 0.0007905982 286.0 (m) DEBRIS
CZ-6A DEB SSO 2024-11-09 19:58:03 0.0001610451 437.0 (m) DEBRIS

Associated space launch

Second generation soviet meteorological satellite

METEOR 2-8 DEB was lifted into orbit during the mission ‘Tsiklon-3 | Meteor-2 8’, on board a Tsiklon-3 space rocket.

The launch took place on March 25, 1982, 9:50 a.m. from 32/1.

For more information about the launch, click the button.

Launch to space Tsiklon-3 | Meteor-2 8
Tsiklon-3 | Meteor-2 8

Agency: N/A

Status: Launch Successful

Launch date: March 25, 1982, 9:50 a.m. UTC

Rocket: Tsiklon-3

Launch pad: 32/1

Location: Plesetsk Cosmodrome, Russian Federation

...

Latest news about this satellite

There are no fresh news available about this satellite. Check back as we update our databases every day.


Newsletter sign-up

Weekly statistics, charts and insights to help you stay on top of the space industry.